Home   Weather   Portsmouth   Past weeks

Flag for United Kingdom Past Weather in Portsmouth, England, United Kingdom — Yesterday and Last 2 Weeks

Now
41 °F

Sunny.


Feels Like: 39 °F
Forecast: 33 / 42 °F
Wind: 3 mph from North

Location: Southampton / Weather Centre

Current Time: Jan 20, 2017 at 12:09:48 pm

Latest Report: Jan 20, 2017 at 11:50 am


Visibility: 10 mi

Pressure: 30.48 "Hg

Humidity: 49%

Dew Point: 23 °F

Location of PortsmouthLocation

Past Weather in Portsmouth — Graph

°F

Portsmouth Temperature Yesterday

Maximum temperature yesterday: 43 °F (at 1:50 pm)
Minimum temperature yesterday: 25 °F (at 6:20 am)
Average temperature yesterday: 34 °F

High & Low Weather Summary for the Past Weeks

 TemperatureHumidityPressure
High50 °F (Jan 7, 12:20 pm)100% (Jan 5, 6:50 pm)30.69 "Hg (Jan 5, 6:50 pm)
Low21 °F (Jan 18, 8:20 am)48% (Jan 18, 1:50 pm)29.36 "Hg (Jan 12, 3:20 pm)
Average40 °F84%30.26 "Hg
* Reported Jan 5 11:20 am — Jan 20 11:20 am, Portsmouth, Weather by CustomWeather, © 2017

Note: Actual official high and low records may vary slightly from our data, if they occured in-between our weather recording intervals... More about our weather records

Advertising

Portsmouth Weather History for the Previous 24 Hours

Scroll right to see more
 ConditionsComfort  
Time TempWeatherWind HumidityBarometerVisibility
11:20 am
Fri, Jan 20
37 °FSunny.3 mph65%30.48 "Hg10 mi
10:50 am36 °FPassing clouds.5 mph75%30.51 "HgN/A
10:20 am34 °FSunny.3 mph75%30.51 "Hg10 mi
9:50 am32 °FSunny.5 mph80%30.51 "Hg10 mi
9:20 am28 °FSunny.6 mph93%30.51 "Hg10 mi
8:50 am25 °FSunny.5 mph93%30.51 "Hg10 mi
8:20 am25 °FSunny.1 mph93%30.51 "Hg10 mi
7:50 am23 °FClear.No wind100%30.51 "Hg10 mi
7:20 am25 °FClear.1 mph93%30.51 "Hg10 mi
6:50 am23 °FClear.2 mph100%30.51 "Hg10 mi
6:20 am23 °FClear.3 mph100%30.51 "Hg10 mi
5:50 am23 °FClear.7 mph93%30.51 "Hg10 mi
10:20 pm
Thu, Jan 19
32 °FClear.3 mph69%30.57 "Hg10 mi
9:50 pm34 °FClear.1 mph70%30.57 "Hg10 mi
9:20 pm32 °FPassing clouds.5 mph75%30.57 "HgN/A
8:50 pm32 °FClear.2 mph75%30.57 "Hg10 mi
8:20 pm30 °FClear.5 mph80%30.57 "Hg10 mi
7:50 pm32 °FClear.3 mph80%30.57 "Hg10 mi
7:20 pm32 °FClear.5 mph75%30.57 "Hg10 mi
6:50 pm30 °FClear.5 mph80%30.57 "Hg10 mi
6:20 pm32 °FClear.6 mph75%30.57 "Hg10 mi
5:50 pm34 °FClear.6 mph70%30.57 "Hg10 mi
5:20 pm34 °FClear.6 mph75%30.57 "Hg10 mi
4:50 pm37 °FClear.5 mph65%30.57 "Hg10 mi
4:20 pm39 °FSunny.3 mph61%30.57 "Hg10 mi
3:50 pm39 °FSunny.8 mph61%30.57 "Hg10 mi
3:20 pm41 °FSunny.8 mph57%30.57 "Hg10 mi
2:50 pm41 °FPassing clouds.7 mph57%30.57 "HgN/A
2:20 pm43 °FPassing clouds.6 mph53%30.57 "HgN/A
1:50 pm43 °FPassing clouds.6 mph49%30.57 "HgN/A
1:20 pm41 °FPassing clouds.7 mph57%30.57 "HgN/A
12:50 pm41 °FPassing clouds.7 mph57%30.60 "HgN/A
12:20 pm41 °FPassing clouds.7 mph57%30.60 "HgN/A
Weather by CustomWeather, © 2017

See weather overviewHow to use our weather pages